Vertical_Velocity
-1 -0 1 2 2 1 1 1 2 2 1 -0 -0 -0 0 1 2 3 4 4 4 3 1 -1 -1 -0 1 2 1 -0 0 1 1 0 -1 -1 -2 -1 1 6 10 11 9 7 5 4 2 1 -0 -1 -2 -4 -4 -4 -3 -1 3 6 10 16 17 8 -3 -9 -6 -3 -0 4 4
-1 0 1 2 1 1 1 2 2 2 1 -0 -0 -0 1 1 2 3 3 4 3 2 -0 -2 -1 -1 -0 -0 -0 -0 0 1 0 -0 -1 -0 -0 1 4 11 13 11 9 7 4 3 1 0 -0 -1 -2 -4 -4 -3 -2 -0 -1 2 10 22 13 0 -9 -8 -4 -3 -3 -2 -1
-0 1 1 1 0 1 1 3 3 2 1 -0 -0 0 1 2 3 3 4 4 3 2 -0 -2 -2 -1 -0 -0 -0 0 1 1 0 -0 0 1 1 3 6 13 12 11 9 7 3 0 -2 -2 -1 -2 -2 -3 -3 -2 -2 -4 -5 3 16 28 9 -5 -10 -5 1 0 -3 -4 -1
0 0 0 -0 0 1 3 5 5 3 1 -0 -0 0 1 2 3 4 4 4 3 1 -1 -3 -1 0 1 0 -0 -0 0 1 1 1 1 2 1 4 8 11 11 10 9 6 1 -2 -4 -3 -2 -2 -2 -2 -2 -2 -4 -6 -1 10 23 34 8 -5 -4 11 18 12 2 -2 3
0 1 0 0 2 4 6 7 6 3 1 0 -0 0 1 2 3 4 4 3 1 -1 -2 -1 1 2 2 1 -0 -0 1 1 2 2 3 3 2 5 8 9 8 9 9 4 -2 -5 -5 -3 -2 -2 -1 -1 -1 -3 -4 -4 3 12 22 31 10 1 6 28 33 24 10 5 7
1 1 2 2 4 7 8 7 5 3 1 1 0 1 1 2 3 3 2 1 -0 -1 -1 0 2 1 0 0 1 1 1 1 2 2 2 2 0 2 4 5 8 9 7 1 -4 -5 -4 -2 -1 -0 0 -0 -1 -2 -2 -1 2 8 15 22 17 15 18 33 36 27 15 10 8
3 4 4 4 7 8 7 5 3 2 1 0 0 1 2 3 3 2 2 1 -0 -1 -1 0 2 -0 -2 -1 1 1 1 2 2 2 1 -0 -1 -0 3 7 13 12 5 -3 -5 -4 -1 0 1 1 1 0 -0 -1 -2 -1 2 6 10 14 19 22 26 32 35 26 14 7 3
6 6 6 6 7 7 6 4 2 1 1 0 1 2 3 4 3 2 2 1 -1 -2 -1 1 1 -1 -2 -0 0 0 1 1 1 1 0 -2 -1 2 7 12 14 9 1 -5 -4 -1 0 1 1 1 1 -0 -1 -1 -0 0 3 6 10 14 19 20 23 31 31 19 6 -0 -2
6 6 6 7 7 6 4 3 2 1 1 1 2 3 4 4 3 2 1 -1 -2 -2 -0 3 2 1 -0 2 1 1 1 1 1 0 -1 -1 0 4 9 14 11 3 -3 -4 -1 1 1 2 1 0 -0 -1 -1 -0 1 2 5 9 14 17 14 13 16 25 17 5 -4 -5 -4
6 6 6 7 6 4 3 2 1 1 1 2 3 3 4 3 2 1 -1 -2 -1 -0 1 3 1 1 1 2 2 2 2 1 1 1 1 1 3 7 10 11 5 -1 -3 -1 1 2 2 1 -0 -1 -1 -1 -0 0 1 3 9 14 16 12 8 8 10 14 2 -4 -6 -4 -4
6 6 6 5 4 3 2 1 1 1 1 2 3 3 2 1 0 -0 -1 -0 0 1 1 1 0 -0 0 1 1 1 1 1 2 3 4 2 4 7 9 6 -1 -3 -1 2 3 3 1 -0 -1 -1 -0 1 0 0 1 4 14 16 12 6 4 4 5 5 -2 -4 -4 -3 -3
5 4 3 2 2 2 1 1 1 1 1 1 2 1 1 0 -0 -0 0 2 0 1 1 1 0 0 1 1 0 0 1 2 3 4 4 1 3 5 5 -1 -4 -2 1 5 5 3 1 -0 -0 0 1 1 0 0 3 8 17 14 7 2 2 3 4 3 -2 -4 -3 -2 -4
2 1 1 2 2 2 1 1 1 0 0 0 0 0 -0 -0 -0 0 1 3 1 2 2 1 1 1 1 1 0 1 1 2 3 3 2 -0 2 2 -0 -6 -4 0 4 7 5 3 2 2 2 2 1 -2 -2 1 7 13 18 13 7 4 6 9 10 6 -1 -3 -3 -4 -6
-1 -0 1 2 2 2 2 1 1 -0 -1 -1 -1 -1 -0 0 0 1 1 2 2 2 2 0 0 1 1 1 1 1 1 2 2 0 -1 -1 2 -1 -5 -6 -2 2 6 7 4 3 3 4 4 2 -1 -7 -1 6 12 16 18 14 11 12 14 19 19 8 0 -3 -4 -6 -7
-1 -0 0 1 2 2 2 1 -0 -1 -2 -2 -2 -1 -0 1 2 2 2 2 2 3 2 -0 -0 0 1 2 2 2 2 1 -1 -2 -1 3 2 -3 -6 -4 1 5 7 6 3 3 4 5 4 -0 -4 -3 7 12 15 16 16 14 14 16 21 24 20 4 -1 -3 -4 -7 -6
3 3 2 1 1 1 1 -0 -1 -2 -3 -3 -2 -1 0 1 3 4 4 2 2 2 1 -1 -0 1 2 3 3 2 1 -1 -3 -0 4 7 1 -3 -3 -1 5 8 7 3 2 4 5 4 2 -2 -2 6 14 17 16 14 11 10 12 16 22 21 12 -1 -3 -4 -5 -8 -5
13 13 9 2 1 0 -1 -1 -2 -3 -3 -3 -1 -0 1 2 5 5 3 1 1 -0 -1 -0 0 1 2 2 1 1 -0 -2 1 6 9 6 1 -0 1 4 9 8 5 1 3 5 5 3 -0 -3 1 14 17 16 13 9 6 7 10 14 16 11 2 -5 -5 -6 -7 -7 -4
11 13 10 3 1 -1 -2 -3 -2 -2 -1 -1 0 1 2 5 8 5 2 0 -1 -1 -1 1 2 2 2 1 -0 -0 1 4 9 10 8 2 1 3 6 9 8 4 1 1 5 6 4 2 -1 -0 5 14 14 11 7 5 5 6 7 8 6 1 -3 -6 -7 -7 -7 -5 -3
2 3 2 1 -0 -0 -0 -0 -1 0 1 1 2 2 4 9 8 4 1 -1 -1 -0 1 2 4 4 3 1 -1 1 5 10 11 8 4 1 3 6 7 7 1 -1 -0 4 5 4 3 2 2 4 8 11 9 6 4 4 5 5 5 3 -0 -3 -5 -6 -7 -7 -5 -3 -1
-4 -3 -3 -3 -2 -0 3 7 5 3 2 2 2 3 6 11 6 1 -1 -3 -0 2 3 4 4 4 3 1 1 4 9 12 8 4 1 1 5 6 3 -4 -4 -2 1 4 3 2 3 6 7 8 9 8 6 4 4 5 5 4 3 1 -1 -4 -5 -6 -6 -4 -2 0 2
-2 -2 -1 -1 1 6 12 19 11 5 1 2 1 4 6 7 1 -1 -2 -1 0 2 3 4 4 3 2 2 4 8 12 9 4 1 -0 3 4 -1 -7 -9 -2 2 4 3 2 4 7 10 10 10 10 8 5 4 4 4 4 3 2 0 -3 -5 -6 -4 -2 -0 1 3 4
12 14 14 11 12 16 19 19 9 3 0 1 0 1 1 -1 -2 -2 -0 1 1 1 2 3 3 3 3 3 5 9 10 3 1 -0 1 2 -4 -8 -7 2 7 7 6 3 4 8 11 11 10 10 9 7 6 5 5 4 3 3 2 -0 -3 -5 -4 -1 1 2 3 3 4
22 22 19 13 13 14 14 10 4 1 -0 -0 -0 -1 -2 -3 -3 -1 0 1 1 1 1 2 3 4 4 4 4 7 8 2 -0 0 1 -2 -7 -1 8 16 15 9 4 4 9 12 12 10 9 8 8 6 5 6 7 6 4 3 2 0 -4 -4 -1 3 3 3 3 3 3
13 10 7 4 8 10 9 4 1 1 1 0 -0 -1 -1 -1 -2 -1 0 1 1 1 1 1 2 3 3 3 2 4 6 5 1 1 0 -4 4 13 19 17 12 3 -1 6 12 13 11 9 8 7 6 4 3 4 7 10 6 3 1 -1 -5 -4 0 4 4 3 3 3 2
2 1 1 5 10 9 5 2 3 3 2 1 1 -0 -0 -1 -1 -1 -0 1 1 1 1 1 1 1 1 0 -0 2 5 3 -0 -1 -1 1 11 14 13 9 3 -4 -4 7 12 12 10 8 7 6 4 1 1 4 7 8 2 -1 -4 -6 -8 -4 2 4 3 2 2 1 1
-2 -0 5 12 10 7 5 6 5 4 2 1 0 -0 -1 -1 -1 -0 -0 0 0 -0 -0 0 0 -0 -1 -2 0 5 6 -2 -6 -5 -0 8 9 7 4 -0 -4 -7 -4 7 10 10 8 8 6 4 1 -0 1 3 3 -0 -3 -5 -7 -11 -8 -2 3 4 2 1 0 0 -0
2 6 10 11 7 6 7 7 5 3 1 1 -0 -1 -1 -1 -1 -0 -0 -1 -1 -2 -2 -1 -0 -1 -1 -1 4 9 7 -3 -7 -3 3 8 6 3 -1 -5 -7 -6 -0 8 9 7 6 5 3 1 -1 -1 1 1 -0 -3 -3 -6 -10 -12 -4 1 4 2 1 0 -0 -1 -1
7 9 9 8 7 7 6 4 2 1 1 1 -0 -0 -1 -1 -1 -1 -1 -2 -2 -3 -2 -1 -0 -0 0 2 6 6 4 -1 -2 0 3 5 4 1 -3 -6 -6 -2 4 8 6 5 3 2 0 -1 -3 -2 -1 -0 -1 -2 -6 -10 -11 -5 1 4 3 2 0 -1 -1 -2 -2
8 9 10 9 8 6 4 2 1 1 1 1 0 -0 -1 -1 -1 -1 -2 -2 -2 -2 -2 -1 -0 1 2 3 2 1 0 1 2 2 2 1 1 -2 -4 -5 -4 1 6 7 4 3 2 1 -1 -2 -3 -2 -1 -1 -3 -6 -11 -10 -6 1 4 4 2 -1 -3 -3 -3 -3 -3
8 9 10 10 7 4 2 1 1 1 1 0 0 -0 -1 -1 -1 -1 -1 -1 -1 -1 -0 0 1 1 2 1 -0 -1 -1 0 1 1 -0 -1 -0 -1 -3 -4 -0 4 7 5 3 2 1 1 -0 -2 -2 -2 -1 -3 -6 -10 -9 -5 -1 2 2 0 -2 -5 -5 -5 -4 -4 -3
2 3 3 3 2 1 1 0 0 0 0 0 -0 -0 -1 -1 -1 -0 -0 -0 -0 1 1 2 2 2 1 -1 -3 -3 -3 -2 -1 -1 -1 -0 1 1 -0 -3 3 6 7 5 3 2 2 1 -1 -2 -3 -3 -3 -5 -7 -6 -2 0 1 -2 -4 -5 -6 -5 -6 -6 -5 -3 -1
-1 -1 -2 -2 -2 -1 -1 -0 0 1 0 -0 -1 -1 -1 -1 -0 0 1 1 2 3 4 4 3 1 -1 -3 -4 -4 -4 -4 -2 -1 0 2 2 1 -1 -2 4 7 6 4 3 1 0 -1 -2 -3 -3 -3 -4 -5 -4 -1 1 -0 -4 -8 -8 -7 -5 -5 -6 -6 -4 -3 -2
-0 -0 -0 -1 -1 -1 -0 1 1 1 1 1 0 -1 -1 -1 -0 0 1 2 4 5 5 4 2 -0 -2 -3 -3 -3 -3 -3 -1 2 4 5 2 -1 -3 0 4 5 4 2 1 -0 -2 -3 -2 -2 -1 -2 -3 -2 -1 -0 -1 -4 -7 -8 -6 -4 -4 -4 -5 -5 -4 -4 -4
0 1 1 1 1 0 1 1 1 2 4 5 4 3 2 1 1 2 3 4 4 4 2 1 -1 -1 -1 1 0 -0 0 2 4 6 6 4 -1 -4 -3 3 5 4 1 0 -0 -1 -1 -1 -0 -0 -0 -1 -2 -1 -1 -1 -2 -4 -4 -3 -2 -2 -2 -3 -4 -4 -5 -5 -5
2 2 2 2 2 1 1 0 0 1 3 5 6 7 7 7 7 7 7 5 2 0 -1 -1 -1 -0 1 1 1 2 4 6 7 6 2 -2 -5 -4 -1 4 5 3 1 1 -0 -0 0 1 1 1 1 0 -0 -0 -1 -1 -2 -2 -1 0 0 -0 -1 -2 -4 -5 -5 -4 -3
2 3 3 2 2 2 1 1 1 1 1 3 5 7 9 10 9 8 6 2 -0 -2 -2 -1 -0 0 0 -0 0 2 5 7 5 0 -5 -9 -8 -4 2 7 6 4 2 2 2 1 1 1 1 0 1 1 1 1 1 0 0 0 0 -0 -1 -2 -3 -5 -5 -5 -4 -4 -3
3 4 3 2 2 2 2 2 2 2 2 2 4 5 5 5 5 4 2 1 -0 -1 -1 -1 -1 -0 -0 -0 1 3 5 6 -0 -6 -10 -10 -6 0 6 9 7 4 1 2 2 2 1 -0 -2 -1 1 3 3 3 3 3 2 0 -1 -3 -5 -6 -6 -6 -6 -5 -4 -4 -4
5 5 4 3 3 3 3 3 3 3 2 2 1 1 0 0 1 1 2 2 1 -0 -1 -2 -1 -0 1 2 3 4 3 -0 -6 -10 -10 -7 -1 4 7 7 5 3 1 2 2 2 1 -1 -3 -2 1 3 4 4 4 3 1 -2 -5 -7 -8 -8 -7 -6 -5 -5 -4 -4 -4
6 5 4 4 4 4 4 4 3 2 2 0 -0 -0 0 0 -0 0 0 1 0 -0 -1 -1 -1 0 2 4 3 1 -2 -6 -10 -10 -7 -2 3 6 6 4 3 2 2 4 3 2 1 -1 -1 -1 1 4 4 4 3 0 -2 -4 -7 -8 -8 -7 -6 -5 -5 -5 -5 -4 -4
9 7 6 4 4 4 3 2 1 1 0 0 0 1 0 -0 -2 -3 -3 -3 -2 -1 -0 -0 1 2 3 4 2 -2 -6 -9 -9 -7 -3 2 5 5 5 5 5 4 4 4 3 2 1 1 1 2 4 5 4 3 2 -0 -3 -4 -6 -6 -6 -5 -5 -5 -5 -5 -4 -4 -3
9 9 7 4 4 2 1 -0 -0 -0 1 1 1 -0 -1 -3 -4 -4 -5 -4 -1 0 1 2 2 2 3 4 1 -2 -6 -7 -5 -2 1 4 4 4 4 6 6 5 4 3 2 2 2 3 4 4 5 5 4 2 1 -1 -3 -4 -5 -5 -5 -6 -6 -5 -4 -4 -3 -2 -0
Height
2898 2901 2904 2908 2911 2915 2917 2920 2922 2924 2926 2927 2928 2929 2932 2934 2937 2939 2942 2946 2949 2953 2957 2961 2966 2970 2974 2978 2982 2986 2989 2993 2996 2999 3003 3006 3010 3013 3017 3020 3023 3026 3029 3031 3033 3036 3038 3039 3041 3043 3046 3049 3052 3054 3057 3058 3059 3060 3062 3064 3066 3066 3067 3068 3069 3070 3071 3072 3073
2896 2899 2902 2906 2910 2913 2916 2918 2920 2922 2924 2925 2927 2928 2930 2933 2936 2938 2941 2945 2948 2952 2956 2960 2964 2969 2973 2977 2981 2984 2988 2992 2995 2998 3002 3006 3009 3013 3017 3020 3023 3026 3028 3031 3033 3034 3037 3039 3041 3044 3046 3049 3052 3054 3056 3058 3058 3060 3061 3063 3064 3064 3064 3066 3068 3069 3070 3071 3072
2894 2897 2901 2905 2909 2912 2915 2917 2918 2920 2922 2924 2926 2927 2929 2932 2935 2938 2941 2944 2947 2951 2955 2959 2963 2968 2973 2976 2980 2983 2987 2991 2994 2998 3001 3005 3009 3013 3017 3019 3022 3025 3028 3030 3032 3034 3036 3039 3042 3044 3046 3049 3051 3054 3056 3057 3058 3059 3060 3062 3062 3062 3063 3065 3068 3069 3070 3071 3072
2893 2896 2900 2904 2908 2911 2913 2915 2917 2919 2921 2923 2924 2926 2928 2931 2934 2937 2940 2943 2946 2950 2954 2958 2962 2968 2972 2975 2979 2982 2986 2990 2993 2997 3001 3005 3009 3013 3017 3019 3022 3025 3027 3029 3032 3034 3037 3039 3042 3044 3046 3049 3051 3053 3055 3057 3057 3058 3060 3062 3061 3061 3063 3065 3068 3069 3069 3070 3071
2892 2895 2899 2903 2907 2910 2913 2914 2916 2918 2919 2922 2923 2925 2928 2930 2933 2936 2939 2943 2946 2949 2953 2957 2963 2968 2972 2974 2978 2982 2985 2989 2993 2997 3001 3006 3010 3013 3017 3020 3023 3025 3027 3029 3031 3034 3037 3040 3042 3044 3046 3048 3051 3053 3054 3055 3056 3058 3060 3062 3061 3062 3063 3067 3068 3069 3069 3069 3070
2892 2895 2899 2903 2907 2909 2912 2913 2915 2917 2918 2921 2923 2925 2927 2930 2933 2936 2939 2942 2945 2949 2953 2957 2963 2967 2971 2973 2977 2981 2985 2989 2993 2997 3001 3006 3010 3014 3018 3021 3023 3025 3027 3029 3032 3035 3038 3040 3042 3044 3046 3048 3050 3052 3053 3054 3055 3057 3059 3061 3063 3064 3065 3067 3068 3068 3068 3068 3069
2893 2896 2899 2903 2906 2909 2910 2912 2914 2916 2918 2920 2922 2925 2927 2930 2933 2936 2938 2942 2945 2948 2952 2957 2962 2967 2970 2973 2977 2981 2985 2989 2993 2997 3001 3006 3010 3014 3018 3019 3021 3023 3026 3029 3032 3035 3038 3039 3041 3043 3046 3048 3049 3051 3053 3053 3055 3057 3058 3061 3063 3064 3065 3067 3068 3067 3067 3067 3068
2893 2896 2900 2903 2906 2908 2909 2912 2913 2915 2918 2920 2922 2925 2927 2930 2933 2936 2938 2942 2945 2948 2953 2957 2962 2966 2970 2973 2977 2981 2985 2989 2993 2997 3002 3006 3011 3014 3017 3018 3020 3023 3026 3030 3033 3035 3037 3039 3041 3043 3045 3047 3048 3050 3052 3053 3055 3056 3058 3060 3062 3063 3065 3066 3067 3066 3065 3065 3067
2894 2897 2900 2903 2905 2908 2909 2911 2913 2915 2918 2920 2923 2925 2928 2930 2933 2936 2939 2942 2945 2949 2953 2958 2963 2967 2970 2973 2977 2981 2985 2989 2993 2998 3002 3007 3011 3014 3016 3018 3020 3023 3027 3030 3032 3034 3037 3039 3041 3043 3044 3046 3048 3049 3050 3052 3054 3056 3058 3059 3060 3062 3063 3065 3064 3064 3063 3065 3066
2895 2898 2901 2904 2906 2908 2910 2912 2914 2916 2918 2921 2923 2926 2928 2931 2933 2936 2939 2943 2946 2950 2954 2959 2963 2967 2970 2974 2978 2982 2986 2990 2994 2999 3003 3008 3012 3014 3016 3017 3020 3024 3027 3030 3032 3034 3036 3038 3040 3042 3044 3045 3047 3048 3049 3051 3053 3055 3057 3058 3058 3060 3061 3062 3062 3062 3063 3064 3065
2897 2899 2902 2904 2907 2908 2910 2912 2914 2917 2919 2922 2924 2926 2929 2931 2934 2937 2940 2944 2948 2952 2956 2960 2964 2968 2971 2975 2979 2983 2987 2991 2996 3000 3005 3009 3013 3014 3016 3018 3021 3024 3027 3029 3032 3034 3036 3038 3039 3041 3043 3044 3045 3047 3048 3051 3053 3054 3055 3056 3057 3059 3060 3061 3061 3061 3063 3063 3064
2899 2901 2903 2906 2908 2910 2912 2913 2915 2918 2920 2922 2924 2927 2929 2932 2935 2939 2943 2947 2950 2953 2958 2961 2964 2968 2972 2976 2980 2984 2988 2993 2997 3002 3006 3010 3013 3014 3016 3019 3022 3024 3027 3029 3031 3033 3035 3037 3038 3040 3041 3043 3044 3046 3048 3050 3052 3053 3054 3055 3057 3058 3059 3060 3060 3061 3062 3063 3063
2901 2904 2906 2908 2910 2911 2913 2915 2917 2918 2921 2923 2925 2928 2931 2934 2937 2942 2946 2950 2952 2955 2959 2962 2966 2969 2973 2977 2981 2985 2990 2994 2999 3003 3007 3010 3013 3014 3016 3019 3022 3024 3026 3028 3031 3033 3034 3036 3037 3039 3040 3042 3044 3046 3048 3050 3052 3053 3054 3055 3057 3058 3059 3060 3060 3061 3061 3062 3063
2904 2906 2908 2909 2911 2913 2914 2916 2918 2920 2922 2924 2927 2929 2933 2936 2940 2944 2948 2951 2953 2956 2960 2963 2968 2971 2975 2979 2983 2987 2992 2996 3000 3004 3008 3011 3013 3014 3017 3019 3021 3023 3026 3028 3030 3032 3033 3034 3036 3038 3039 3042 3043 3046 3048 3049 3051 3053 3054 3056 3057 3058 3059 3059 3059 3060 3061 3061 3062
2906 2908 2909 2911 2912 2914 2916 2918 2919 2921 2923 2926 2928 2932 2935 2939 2943 2947 2950 2952 2954 2958 2961 2965 2969 2973 2977 2981 2985 2989 2994 2998 3002 3006 3008 3010 3012 3014 3017 3019 3021 3023 3025 3027 3029 3031 3032 3033 3035 3037 3039 3041 3043 3045 3047 3048 3050 3052 3053 3055 3057 3057 3057 3057 3058 3059 3060 3060 3062
2908 2910 2911 2913 2914 2916 2918 2920 2922 2923 2926 2928 2931 2934 2938 2941 2946 2949 2951 2953 2956 2959 2963 2967 2971 2975 2979 2983 2988 2992 2996 3000 3004 3006 3008 3009 3011 3014 3016 3018 3021 3023 3024 3027 3028 3030 3031 3032 3034 3036 3038 3041 3043 3044 3046 3047 3049 3050 3052 3054 3055 3055 3054 3055 3057 3058 3059 3060 3061
2912 2913 2914 2915 2916 2918 2920 2922 2924 2926 2928 2931 2934 2937 2940 2944 2948 2950 2951 2954 2957 2961 2965 2969 2973 2977 2981 2985 2989 2993 2998 3001 3003 3005 3006 3008 3011 3014 3016 3018 3021 3023 3024 3026 3028 3029 3030 3032 3034 3036 3038 3040 3041 3043 3044 3045 3047 3049 3050 3052 3053 3053 3053 3054 3056 3057 3058 3060 3061
2913 2915 2916 2917 2918 2920 2922 2924 2926 2928 2930 2933 2936 2939 2943 2947 2950 2951 2952 2956 2959 2963 2967 2971 2975 2979 2983 2987 2991 2995 2998 3000 3002 3003 3005 3008 3011 3014 3016 3019 3021 3023 3025 3026 3028 3029 3030 3032 3034 3035 3037 3038 3039 3041 3042 3044 3046 3047 3049 3050 3050 3051 3052 3053 3055 3057 3058 3060 3061
2914 2916 2917 2919 2921 2923 2924 2926 2928 2930 2933 2935 2938 2942 2945 2949 2951 2952 2954 2958 2962 2966 2970 2973 2977 2981 2984 2988 2992 2995 2998 3000 3001 3003 3006 3008 3011 3014 3017 3019 3022 3024 3025 3026 3028 3029 3030 3032 3033 3034 3035 3036 3038 3039 3041 3043 3044 3046 3047 3048 3049 3050 3052 3053 3055 3057 3058 3060 3061
2916 2918 2919 2922 2923 2925 2927 2930 2931 2933 2935 2938 2940 2944 2948 2951 2952 2954 2958 2961 2965 2968 2972 2976 2979 2983 2986 2989 2993 2996 2998 3000 3002 3004 3007 3009 3012 3014 3017 3020 3022 3023 3024 3026 3028 3029 3030 3031 3032 3033 3034 3036 3037 3039 3041 3042 3044 3045 3047 3048 3049 3051 3052 3054 3056 3057 3059 3060 3061
2918 2920 2921 2923 2926 2928 2931 2934 2934 2935 2937 2940 2943 2947 2950 2951 2954 2957 2961 2964 2968 2971 2974 2978 2981 2984 2987 2991 2993 2996 2999 3000 3003 3005 3008 3010 3012 3015 3018 3020 3021 3023 3024 3026 3027 3028 3029 3030 3032 3033 3034 3036 3038 3039 3041 3042 3043 3045 3046 3048 3049 3050 3052 3054 3056 3057 3058 3059 3061
2920 2921 2923 2925 2928 2931 2933 2936 2936 2938 2940 2942 2946 2948 2951 2953 2957 2961 2964 2967 2970 2973 2976 2979 2983 2986 2989 2992 2994 2997 3000 3002 3004 3006 3008 3010 3013 3016 3018 3019 3021 3023 3024 3026 3027 3027 3028 3030 3032 3033 3034 3036 3038 3039 3041 3042 3043 3044 3046 3047 3048 3050 3053 3055 3056 3057 3058 3059 3060
2922 2924 2925 2927 2930 2933 2935 2937 2938 2940 2943 2946 2949 2952 2954 2958 2961 2964 2967 2970 2973 2975 2978 2981 2984 2988 2991 2993 2996 2998 3001 3003 3005 3006 3008 3011 3013 3015 3017 3019 3021 3023 3024 3025 3026 3027 3028 3030 3031 3033 3034 3036 3038 3039 3040 3041 3043 3044 3045 3047 3048 3050 3053 3055 3056 3057 3058 3059 3060
2924 2926 2927 2929 2932 2936 2938 2939 2942 2944 2947 2950 2952 2955 2958 2961 2964 2967 2970 2973 2975 2978 2981 2983 2987 2990 2993 2995 2998 3000 3002 3003 3005 3007 3009 3011 3013 3015 3017 3018 3020 3022 3023 3025 3026 3028 3029 3030 3031 3033 3034 3036 3037 3039 3040 3041 3043 3043 3044 3045 3047 3050 3053 3054 3056 3057 3058 3059 3061
2928 2929 2930 2933 2937 2939 2941 2943 2946 2948 2951 2953 2956 2959 2962 2964 2967 2970 2972 2975 2977 2980 2983 2986 2989 2992 2994 2997 2999 3001 3003 3004 3005 3007 3010 3012 3013 3014 3016 3018 3019 3021 3023 3024 3026 3028 3029 3030 3031 3033 3034 3036 3037 3038 3040 3041 3042 3042 3043 3044 3047 3050 3053 3055 3056 3057 3058 3059 3061
2931 2933 2936 2939 2941 2943 2945 2947 2949 2952 2954 2957 2959 2962 2964 2967 2970 2972 2974 2977 2979 2983 2985 2988 2992 2994 2996 2999 3001 3003 3003 3004 3005 3008 3010 3012 3013 3014 3016 3017 3019 3021 3022 3024 3026 3028 3029 3030 3031 3033 3034 3035 3037 3038 3040 3040 3041 3041 3042 3044 3048 3052 3054 3055 3056 3057 3058 3059 3060
2936 2938 2941 2943 2944 2946 2948 2951 2953 2955 2958 2960 2963 2965 2967 2970 2972 2974 2977 2979 2982 2985 2988 2991 2993 2996 2998 3001 3002 3003 3003 3004 3006 3008 3010 3012 3013 3014 3016 3018 3019 3021 3022 3024 3026 3027 3028 3029 3031 3033 3034 3035 3037 3038 3039 3040 3040 3041 3042 3046 3050 3053 3054 3055 3056 3057 3058 3059 3060
2941 2943 2944 2946 2948 2950 2952 2954 2956 2958 2961 2963 2965 2968 2970 2972 2974 2977 2979 2982 2984 2987 2990 2993 2995 2997 2999 3002 3003 3004 3004 3006 3007 3009 3011 3012 3013 3015 3017 3019 3020 3021 3022 3024 3025 3026 3028 3029 3031 3033 3034 3036 3037 3038 3038 3039 3039 3041 3044 3048 3051 3053 3053 3054 3055 3057 3058 3058 3059
2945 2946 2948 2950 2952 2953 2956 2958 2959 2962 2964 2966 2968 2970 2972 2974 2976 2979 2981 2983 2986 2989 2991 2993 2996 2998 3000 3002 3003 3004 3005 3007 3008 3009 3011 3013 3015 3017 3018 3020 3021 3022 3023 3024 3025 3027 3028 3030 3031 3033 3034 3036 3037 3037 3038 3038 3040 3043 3047 3050 3051 3052 3053 3054 3055 3056 3057 3058 3059
2948 2950 2952 2953 2955 2957 2959 2961 2963 2965 2967 2969 2971 2973 2974 2976 2978 2981 2983 2986 2988 2990 2993 2995 2997 2999 3000 3002 3003 3004 3006 3007 3008 3010 3012 3014 3016 3018 3019 3021 3021 3022 3023 3024 3026 3027 3029 3030 3032 3033 3034 3035 3036 3036 3037 3038 3041 3045 3048 3049 3050 3051 3052 3053 3055 3055 3056 3058 3058
2952 2953 2955 2957 2958 2960 2962 2964 2966 2968 2969 2971 2973 2975 2976 2978 2980 2983 2985 2988 2990 2992 2994 2996 2998 2999 3001 3002 3003 3005 3006 3008 3009 3012 3013 3015 3017 3019 3020 3022 3023 3023 3024 3026 3027 3028 3029 3031 3032 3033 3033 3034 3035 3036 3038 3040 3043 3046 3048 3049 3050 3051 3052 3053 3054 3055 3056 3057 3058
2956 2957 2959 2960 2962 2963 2965 2967 2969 2970 2972 2973 2975 2977 2978 2980 2983 2985 2987 2989 2991 2993 2996 2998 2999 3000 3001 3003 3004 3005 3007 3009 3011 3013 3015 3017 3018 3020 3021 3022 3023 3024 3025 3027 3028 3029 3030 3031 3032 3032 3033 3033 3035 3037 3039 3041 3043 3045 3047 3048 3050 3051 3052 3053 3053 3055 3056 3057 3058
2958 2960 2962 2963 2965 2967 2968 2970 2972 2973 2975 2976 2978 2979 2981 2983 2984 2986 2988 2991 2993 2995 2997 2998 3000 3001 3002 3004 3005 3007 3009 3011 3013 3014 3016 3018 3019 3021 3022 3023 3024 3025 3026 3027 3028 3029 3030 3030 3031 3032 3033 3034 3036 3038 3040 3042 3043 3045 3047 3049 3050 3051 3052 3053 3054 3055 3056 3057 3058
2962 2963 2964 2966 2968 2969 2971 2973 2974 2976 2977 2978 2980 2982 2983 2985 2986 2988 2990 2993 2994 2996 2998 2999 3000 3002 3004 3005 3007 3009 3011 3012 3014 3015 3017 3018 3020 3021 3023 3024 3025 3026 3027 3027 3028 3029 3029 3030 3031 3033 3034 3035 3037 3039 3040 3042 3044 3046 3048 3049 3050 3051 3052 3053 3054 3055 3056 3057 3058
2964 2966 2967 2969 2970 2972 2973 2975 2977 2978 2979 2981 2982 2984 2986 2987 2989 2990 2992 2994 2995 2997 2998 3000 3002 3003 3005 3007 3009 3010 3012 3013 3015 3016 3018 3019 3020 3022 3023 3024 3025 3025 3026 3027 3028 3029 3030 3031 3032 3033 3035 3037 3038 3040 3042 3044 3046 3047 3048 3049 3050 3051 3053 3054 3055 3056 3056 3057 3057
2968 2969 2970 2972 2973 2975 2976 2978 2979 2980 2982 2983 2985 2986 2988 2989 2991 2992 2993 2995 2996 2998 2999 3001 3003 3005 3007 3008 3010 3012 3013 3014 3015 3017 3018 3019 3021 3022 3023 3023 3024 3025 3026 3028 3028 3030 3031 3032 3033 3035 3037 3039 3041 3043 3044 3045 3047 3048 3049 3050 3051 3052 3053 3054 3055 3055 3056 3057 3057
2972 2973 2974 2975 2976 2977 2978 2980 2981 2983 2984 2985 2987 2988 2989 2990 2992 2993 2995 2996 2998 2999 3001 3003 3005 3007 3008 3010 3011 3013 3014 3015 3016 3018 3019 3020 3021 3022 3023 3024 3025 3026 3027 3028 3029 3030 3031 3033 3035 3038 3040 3042 3043 3044 3045 3047 3048 3048 3049 3050 3051 3052 3053 3054 3054 3055 3056 3056 3057
2975 2977 2978 2978 2979 2980 2981 2983 2983 2985 2986 2987 2988 2990 2991 2992 2993 2995 2997 2998 3000 3001 3003 3005 3006 3008 3009 3011 3012 3013 3014 3015 3017 3019 3020 3021 3022 3022 3023 3024 3025 3026 3027 3028 3029 3030 3032 3034 3037 3039 3042 3043 3044 3045 3046 3047 3048 3049 3050 3050 3051 3052 3053 3053 3054 3055 3055 3056 3057
2978 2979 2980 2981 2982 2983 2984 2985 2986 2987 2988 2989 2990 2991 2993 2994 2995 2997 2998 3000 3002 3003 3005 3006 3008 3009 3010 3011 3012 3013 3015 3017 3018 3020 3021 3021 3022 3023 3023 3024 3025 3026 3027 3028 3030 3032 3034 3036 3039 3041 3043 3044 3045 3046 3047 3048 3049 3049 3050 3051 3052 3052 3053 3053 3054 3055 3055 3056 3057
2980 2981 2983 2984 2984 2985 2986 2987 2988 2989 2990 2991 2992 2993 2994 2996 2997 2998 3000 3002 3004 3005 3006 3008 3008 3010 3011 3012 3013 3014 3016 3018 3019 3020 3021 3021 3022 3023 3024 3025 3026 3027 3028 3030 3032 3034 3036 3038 3040 3042 3044 3045 3046 3047 3048 3049 3050 3050 3051 3051 3052 3052 3053 3053 3054 3055 3056 3057 3058
2982 2983 2984 2985 2986 2987 2987 2988 2989 2990 2992 2993 2994 2995 2997 2998 2999 3001 3003 3004 3005 3006 3008 3008 3009 3010 3012 3013 3014 3016 3017 3018 3019 3020 3021 3022 3023 3024 3025 3027 3028 3029 3031 3032 3034 3036 3038 3040 3042 3043 3045 3046 3047 3048 3049 3049 3050 3050 3051 3052 3052 3053 3053 3054 3055 3056 3057 3057 3058